GFSNE_sfc_rhum_057.txt.gz
RH
84 87 91 91 92 94 94 93 99 97 97 88 82 69 66 66 61 61 69 60 56 57 55 53 52 53 52 53 52 52 52 52 52 53 52 52 52 56
84 88 89 89 89 88 76 80 97 99 99 84 73 69 66 52 55 62 67 58 60 58 58 59 59 61 60 58 56 55 55 55 54 53 52 53 56 57
84 88 86 84 84 83 81 76 69 68 72 69 74 71 73 73 66 74 71 71 73 63 64 63 63 62 60 60 61 62 58 55 55 56 58 56 58 62
86 86 82 67 76 77 75 68 69 68 72 72 76 77 76 71 73 79 65 58 76 65 60 58 56 57 57 58 62 66 66 66 65 60 59 61 62 61
83 84 82 83 86 79 71 70 70 58 74 80 79 78 78 77 75 76 78 83 61 57 56 57 60 63 63 64 66 64 62 71 77 77 75 73 71 68
80 74 71 76 73 66 62 67 64 73 79 82 79 74 80 77 84 87 88 72 68 55 63 66 65 67 68 67 68 67 67 65 72 75 86 89 86 82
78 72 71 68 63 67 62 67 76 81 83 83 79 78 83 84 88 92 83 76 73 74 76 75 74 76 78 76 74 73 72 69 69 76 80 84 92 87
76 71 74 72 70 71 69 68 73 80 82 89 84 90 87 93 96 84 84 88 84 80 91 85 82 82 78 80 77 76 73 75 72 74 78 90 94 85
77 75 73 59 72 76 77 70 67 66 81 85 96 92 97 81 79 89 91 93 92 84 93 85 81 90 78 68 74 74 75 79 76 78 80 87 94 81
78 79 76 76 75 74 73 75 71 70 65 61 82 88 83 80 86 83 93 93 91 84 90 94 87 90 85 83 74 74 77 80 80 82 84 83 84 82
78 80 84 86 77 75 80 82 77 71 56 58 62 65 67 65 70 94 92 96 91 80 83 97 96 90 85 87 86 77 77 79 85 84 90 88 85 84
94 92 86 85 76 77 90 91 94 77 67 68 77 72 71 77 72 84 96 98 95 91 86 95 83 91 98 97 98 90 95 90 85 95 91 89 85 94
94 96 89 82 79 76 77 91 91 78 77 82 84 83 84 84 80 84 89 96 95 90 74 90 97 93 97 97 97 95 96 95 98 97 96 85 85 86
94 95 91 83 80 79 78 83 81 88 95 96 97 94 93 90 82 85 84 86 89 90 85 95 96 94 96 94 92 95 92 91 99 99 99 89 86 86
88 92 90 85 92 86 83 85 89 96 97 98 96 93 94 81 80 86 80 81 84 88 76 89 93 91 94 95 95 93 93 93 98 99 99 99 96 99
95 93 93 93 95 91 95 91 96 96 95 95 96 97 95 97 97 95 97 92 96 94 79 85 87 93 93 91 96 95 88 98 98 97 98 97 99 97
93 98 97 97 96 96 96 95 95 97 98 97 97 95 95 97 97 97 97 95 98 93 88 78 76 81 88 98 98 96 95 95 98 97 96 98 98 95
98 97 96 96 96 96 96 94 96 96 95 95 96 92 94 96 98 97 98 98 98 93 92 85 84 88 90 90 94 96 96 96 97 98 98 99 98 98
98 97 96 96 95 95 95 94 94 94 92 92 93 90 94 94 98 98 98 98 97 96 90 93 86 94 95 100 87 92 96 96 98 96 97 93 96 98
98 96 94 93 95 95 95 93 93 95 97 96 96 94 95 96 98 98 98 99 98 94 93 85 86 82 94 98 98 95 95 99 99 98 99 99 98 94
88 92 94 94 93 96 96 94 94 95 97 97 94 92 95 96 98 98 98 98 99 92 92 85 77 80 86 97 98 97 98 87 91 98 98 99 98 99
90 93 93 96 96 95 97 96 96 98 97 95 94 93 96 96 97 97 99 100 98 98 95 90 75 75 89 85 95 97 98 97 90 85 89 97 98 98
98 98 96 96 97 96 96 96 96 96 95 94 93 94 97 99 97 96 98 98 98 97 97 94 84 83 87 86 95 96 96 97 98 98 96 88 89 97

GFSNE_sfc_rhum_063.txt.gz
RH
66 64 58 52 55 53 56 58 70 72 47 46 52 50 45 42 40 43 42 46 56 60 61 61 61 61 60 58 57 56 57 58 57 56 54 54 56 53
59 63 59 56 56 56 55 58 59 65 77 47 46 47 43 32 38 45 41 52 53 61 65 65 65 64 62 62 61 60 61 58 58 58 57 61 59 57
62 62 62 59 58 58 59 58 58 58 65 46 44 40 44 43 40 40 39 40 40 53 64 68 63 62 60 60 60 60 60 60 60 58 58 58 56 59
60 61 60 50 63 62 58 59 55 51 52 50 40 40 44 44 44 44 34 34 39 47 64 61 61 58 62 63 63 64 63 63 63 62 61 63 64 61
59 59 56 58 61 56 58 56 52 47 47 45 43 40 44 43 43 38 37 43 36 49 52 54 57 62 66 65 66 67 68 69 69 68 69 69 67 64
62 62 59 60 60 57 53 54 52 51 45 44 44 43 43 42 43 39 39 35 37 35 43 52 60 60 63 64 67 70 70 70 70 71 76 76 77 74
61 57 58 62 69 66 51 50 49 46 43 45 46 45 44 43 42 38 42 40 41 42 42 40 40 41 43 51 55 63 65 71 73 72 73 77 80 79
57 54 54 68 66 78 81 77 56 49 51 51 50 51 47 49 45 43 47 49 52 40 46 46 40 44 41 42 55 63 70 70 70 72 73 79 80 81
57 55 53 50 65 56 66 77 79 77 71 60 70 57 65 52 42 46 48 50 52 44 48 54 46 52 46 40 58 66 71 74 74 76 81 85 86 86
61 59 59 59 58 61 58 56 54 55 59 56 57 54 51 45 44 52 59 60 52 44 44 69 53 61 52 51 60 68 75 75 76 76 74 81 86 87
61 61 61 60 68 76 69 70 63 62 61 68 66 66 70 68 68 63 68 64 71 48 45 63 56 60 58 61 57 60 67 71 72 73 75 76 80 82
64 63 80 70 77 83 88 86 90 67 54 52 52 56 57 54 68 60 58 70 66 64 41 58 51 57 70 56 60 62 63 69 74 73 74 78 83 90
71 67 68 84 89 87 86 88 94 67 66 59 54 49 46 49 50 51 53 61 67 58 44 57 60 56 65 65 59 59 64 73 75 71 75 81 80 87
84 79 74 79 90 93 90 88 88 84 79 77 74 70 67 64 54 52 53 55 54 57 55 74 76 63 67 72 66 57 66 74 77 79 76 80 87 87
79 80 84 88 92 96 97 90 88 92 91 92 82 70 64 57 56 59 55 54 55 58 53 61 67 65 74 81 74 68 70 70 75 90 86 89 87 98
84 81 84 96 98 98 98 97 97 94 91 85 79 65 65 71 74 64 66 64 70 67 60 60 62 62 68 62 62 68 63 92 77 90 94 95 85 83
87 89 91 90 91 93 94 94 90 94 93 91 86 80 77 71 74 67 67 66 73 66 62 53 53 55 58 65 75 63 73 76 87 92 91 84 89 80
90 93 94 98 95 94 94 88 88 86 86 90 89 86 84 80 76 72 69 74 73 65 63 58 56 63 60 65 73 73 79 81 86 71 84 90 83 77
92 93 99 94 94 93 92 86 85 82 86 92 87 85 87 85 84 79 77 76 73 65 61 60 61 63 69 84 63 81 82 74 78 76 79 88 88 85
83 90 96 96 97 91 84 84 82 84 91 90 90 87 90 84 85 80 75 81 72 64 62 55 56 54 71 83 86 80 74 90 85 86 81 79 83 90
83 82 87 86 91 90 92 93 98 95 95 95 92 87 90 82 85 78 76 78 79 64 63 59 54 65 59 71 92 83 94 90 86 88 86 85 87 84
83 81 85 85 90 92 98 100 99 96 95 90 93 93 90 89 85 81 83 81 72 70 63 58 51 49 62 68 72 81 78 83 83 79 82 94 91 88
85 82 86 90 89 91 89 93 92 94 93 91 92 90 90 90 83 81 82 76 70 70 67 63 52 51 57 60 75 75 84 83 78 78 80 82 84 92

GFSNE_sfc_rhum_069.txt.gz
RH
81 78 55 43 38 37 38 38 45 60 42 34 32 31 29 32 39 38 40 51 63 60 58 53 54 56 62 63 62 62 61 60 59 57 57 58 57 56
75 65 51 43 40 40 38 37 37 43 51 33 30 32 32 25 36 37 38 54 55 59 63 60 52 54 58 64 64 63 62 61 60 59 58 58 59 60
69 59 50 45 43 41 39 38 38 39 45 39 31 34 40 41 34 36 38 39 38 56 64 64 56 54 58 61 62 62 61 61 61 60 59 58 58 57
64 54 48 37 45 45 43 45 45 43 43 48 40 38 41 40 42 43 33 26 33 39 57 61 55 56 57 57 59 62 64 64 64 63 62 62 62 61
53 48 44 43 47 46 44 44 42 34 40 42 42 38 38 37 38 39 40 43 28 42 53 58 56 55 57 55 57 61 62 64 64 66 67 68 68 67
54 47 44 45 46 47 44 47 41 44 44 43 42 41 39 38 38 39 43 38 35 22 33 45 51 52 56 59 63 60 64 62 62 65 72 76 77 73
47 41 44 48 60 60 44 49 49 47 45 43 42 41 39 38 40 41 46 45 39 35 34 33 35 34 38 50 52 62 61 57 60 63 67 73 76 75
45 41 39 51 51 70 74 72 60 58 58 56 50 50 46 46 45 47 57 53 49 34 38 41 36 38 37 37 56 59 60 60 65 69 72 73 77 78
45 44 39 29 48 39 60 75 78 80 79 63 67 60 63 56 58 76 64 52 50 37 43 49 48 49 39 30 56 63 65 65 68 71 73 78 82 83
42 41 44 46 47 52 50 53 56 63 69 63 62 58 56 52 56 64 61 53 46 43 44 66 50 52 50 46 55 60 64 70 71 74 75 78 79 80
46 46 44 48 58 74 67 70 61 57 53 80 77 73 73 69 65 62 72 66 76 51 47 52 51 54 49 52 53 72 78 76 74 76 77 77 80 82
50 46 58 55 66 74 73 71 75 66 67 60 62 71 72 65 80 67 64 74 69 66 47 52 46 47 60 53 53 58 57 66 67 71 72 75 79 78
58 55 53 65 70 73 80 75 80 74 79 83 95 92 84 56 55 62 59 63 69 60 48 52 54 50 56 56 56 58 60 69 74 70 70 73 76 79
62 61 61 68 74 78 79 77 76 80 84 91 97 96 98 74 56 54 58 59 54 56 52 64 72 61 66 67 64 56 66 71 77 79 76 74 76 81
62 68 72 75 77 77 78 82 87 86 88 95 96 96 92 75 60 60 59 54 56 60 46 58 65 59 68 71 67 68 68 63 74 83 80 77 79 82
65 69 74 79 82 88 88 79 84 87 88 93 93 93 94 77 70 66 68 68 72 71 60 62 62 61 68 63 63 69 62 73 70 79 80 80 78 79
77 77 72 73 76 76 75 77 73 74 91 94 97 97 95 78 82 73 74 75 83 76 67 58 61 63 65 64 73 63 69 73 79 86 72 78 75 77
68 71 75 84 84 80 83 81 82 88 98 99 98 99 94 96 87 84 88 87 80 74 66 59 50 59 57 58 64 69 77 76 86 70 73 85 78 73
65 64 75 81 85 75 78 82 84 94 100 100 100 90 86 81 93 92 92 86 86 75 64 60 56 58 59 77 61 72 71 70 78 79 78 83 83 78
57 62 68 71 73 77 79 82 82 85 94 98 90 92 95 91 94 92 92 91 87 72 62 55 50 51 58 67 76 74 84 83 81 80 80 77 76 80
57 57 65 63 67 74 86 87 88 93 94 95 99 94 100 89 96 92 91 89 90 77 62 53 45 70 50 52 77 78 94 92 82 80 75 78 75 79
65 61 63 69 80 81 88 90 88 90 93 93 96 99 100 97 95 94 94 90 81 71 58 50 46 46 50 51 59 72 73 81 85 86 81 84 83 81
72 69 74 76 80 80 78 87 84 92 91 92 90 87 95 97 95 94 91 84 88 65 58 56 49 46 48 46 54 58 68 70 64 67 87 83 79 82

GFSNE_sfc_rhum_072.txt.gz
RH
94 90 84 77 69 62 61 61 74 91 73 62 61 51 54 58 68 72 66 66 73 72 65 61 54 51 50 52 57 60 63 62 61 59 58 57 56 55
94 89 88 75 68 67 61 65 66 72 73 62 58 56 53 37 48 62 57 56 64 70 72 68 64 55 51 52 55 56 62 63 62 61 59 58 57 55
93 92 82 71 71 67 68 67 67 68 71 64 61 56 59 62 54 62 62 59 62 67 71 73 73 66 58 56 57 57 60 62 62 62 61 59 58 57
88 82 75 55 67 69 70 69 70 67 71 67 57 59 59 56 61 63 51 36 51 50 65 68 71 68 67 65 62 61 62 61 63 64 62 62 61 59
77 77 70 65 69 72 71 71 70 52 67 70 63 64 65 64 61 61 58 60 45 52 61 64 67 66 66 67 63 64 66 68 68 67 67 66 66 65
74 69 66 66 68 69 65 70 62 73 71 73 72 67 66 60 66 67 74 69 60 36 45 48 60 62 69 68 70 70 68 69 70 72 72 73 75 71
70 66 66 68 69 70 55 68 71 72 68 65 64 65 65 71 70 73 68 69 72 64 59 54 55 59 59 62 60 67 68 72 72 68 69 72 75 74
70 64 61 63 58 70 73 73 61 62 66 69 74 71 68 68 74 80 83 82 89 70 61 66 61 63 57 59 56 55 64 64 63 65 69 74 79 81
66 65 54 39 62 58 67 76 82 80 82 69 78 84 87 71 76 80 87 94 95 80 62 71 70 72 65 41 60 62 66 69 71 70 74 78 81 82
68 66 64 64 63 67 65 66 65 68 73 75 79 78 79 76 74 71 84 96 91 72 59 86 75 78 77 72 60 61 68 73 71 76 78 78 80 81
57 62 62 61 67 73 74 78 74 70 59 70 80 83 83 81 74 83 94 97 96 80 72 77 75 82 73 76 70 60 69 73 72 77 78 77 80 82
73 60 66 68 76 75 77 77 78 71 76 77 76 74 80 96 90 68 87 97 92 94 73 75 73 78 90 80 77 76 82 70 68 71 72 75 75 82
73 71 71 71 72 73 74 78 83 79 80 78 72 73 77 84 97 94 81 90 88 82 73 84 90 83 92 86 84 77 83 86 92 84 76 76 78 79
74 73 72 68 69 75 79 82 84 85 88 90 88 83 77 83 95 86 78 78 74 73 71 76 93 89 92 93 83 85 89 88 89 92 92 83 81 80
73 70 68 69 73 80 76 77 83 94 95 96 93 90 83 79 97 99 89 76 74 75 61 76 87 81 92 92 85 86 83 83 87 94 95 95 94 94
76 78 78 78 84 77 74 75 78 82 89 98 95 88 90 98 98 98 96 89 92 94 78 75 77 80 88 84 87 82 84 92 85 95 98 98 94 94
83 82 80 80 77 76 75 75 77 80 86 91 98 92 97 98 99 98 90 89 88 94 92 90 81 78 81 77 89 81 81 87 93 94 93 94 94 93
86 87 90 90 87 79 80 79 79 80 84 86 90 99 98 98 98 95 97 97 96 94 88 88 86 88 81 79 75 79 85 94 96 91 90 97 95 94
89 87 92 92 86 77 78 80 84 81 80 91 94 91 99 100 99 99 97 96 96 96 93 89 85 84 80 95 86 75 94 95 95 95 96 97 96 85
82 83 86 87 82 81 82 81 81 84 85 85 93 95 97 97 97 96 98 97 96 96 90 80 78 76 81 91 95 93 76 96 97 97 96 96 90 82
77 76 86 79 82 82 85 87 87 87 88 89 91 94 93 96 98 97 94 97 98 96 95 79 76 72 79 87 92 93 93 84 90 97 96 98 96 95
90 82 80 83 86 85 87 87 87 86 87 88 91 94 95 94 95 97 97 98 98 98 93 83 68 71 82 75 86 88 93 99 95 91 88 84 97 99
92 88 91 90 85 86 84 88 85 88 85 89 91 90 94 94 89 93 96 98 98 96 84 82 79 76 74 67 78 87 81 89 92 95 99 91 86 86

GFSNE_sfc_rhum_075.txt.gz
RH
99 96 96 96 95 93 82 65 78 92 83 71 68 57 59 68 70 83 78 76 77 77 76 72 62 58 57 51 50 50 51 51 56 60 59 59 58 56
96 96 96 96 94 85 74 73 73 77 79 74 68 65 57 44 57 78 70 70 79 79 77 75 71 65 59 54 51 51 51 51 55 59 60 59 58 57
96 94 90 86 88 86 78 73 74 78 84 78 71 66 65 64 60 64 70 75 74 76 76 76 78 74 71 67 60 56 55 53 57 58 60 60 59 57
90 88 88 74 88 83 78 77 79 76 79 73 77 74 70 67 68 69 55 49 58 61 73 77 74 73 72 71 70 68 65 61 63 62 62 64 63 59
87 88 85 85 87 85 82 83 79 63 79 86 70 79 80 75 72 69 66 66 55 58 69 69 75 77 76 75 72 72 71 72 74 72 67 67 67 66
88 86 84 84 79 78 75 77 73 84 84 85 75 82 82 74 76 76 80 76 71 48 53 54 59 62 73 76 75 75 73 73 74 74 75 76 78 73
86 74 72 75 82 80 69 79 82 88 90 88 79 73 85 84 78 78 77 78 77 77 73 69 61 61 63 59 69 74 75 75 71 76 76 77 76 75
72 71 67 67 70 80 77 77 83 87 91 92 81 80 87 89 80 74 84 82 86 83 78 78 65 67 63 63 60 65 66 65 69 75 75 74 77 81
74 76 64 53 72 71 75 74 76 76 87 92 91 88 87 86 94 96 86 90 90 85 78 79 75 73 67 47 62 67 66 72 71 71 72 76 80 82
73 74 75 73 72 75 76 77 74 72 68 65 79 79 84 89 89 94 98 97 92 94 80 85 79 78 78 79 69 68 63 70 70 70 74 77 79 82
69 70 66 71 74 72 79 82 74 70 59 65 67 70 75 80 78 80 86 95 96 96 82 75 82 90 82 81 75 65 67 70 73 74 72 72 74 76
75 69 72 77 77 73 77 83 89 83 84 85 84 82 76 76 76 83 90 92 95 97 86 83 81 85 91 89 78 76 79 68 69 71 71 69 70 84
81 81 80 71 67 69 75 86 90 84 84 89 88 84 86 85 86 83 90 94 95 96 83 85 88 86 93 89 90 74 78 85 94 85 73 72 72 77
78 81 82 68 70 75 80 77 76 82 87 90 86 86 82 83 84 84 88 92 94 85 78 84 93 89 94 96 94 88 94 92 96 94 91 80 80 82
81 75 70 73 75 83 72 66 78 87 88 90 90 88 84 92 87 88 95 97 98 84 72 81 91 88 91 92 93 92 95 90 95 96 96 94 98 98
81 81 83 85 89 87 81 77 86 85 85 89 91 88 85 95 95 94 98 97 98 92 82 82 84 84 92 85 90 87 93 94 94 95 94 96 98 96
92 94 91 88 84 83 81 80 80 80 82 84 86 88 85 86 91 92 97 98 97 93 91 89 85 85 86 82 95 88 86 93 95 95 95 97 95 95
92 97 97 97 96 88 90 88 83 82 80 82 86 85 89 90 90 98 98 98 95 96 95 93 90 96 96 89 78 83 94 95 95 93 93 99 97 94
97 97 98 98 99 89 89 88 88 85 83 84 88 87 90 90 94 94 98 98 97 95 95 92 90 90 90 97 85 80 89 92 97 97 98 99 97 90
94 96 96 97 97 95 90 89 88 89 90 85 89 90 90 92 93 91 97 98 96 94 95 91 93 85 89 92 92 93 80 94 97 97 98 98 94 86
97 94 97 95 97 95 98 97 99 97 92 92 88 89 91 90 92 93 92 95 98 95 96 94 83 82 84 84 90 91 91 79 86 95 97 99 98 97
98 96 96 98 97 96 99 97 95 94 88 90 90 93 92 91 94 93 93 94 91 94 94 88 73 70 79 73 86 91 92 99 90 91 90 87 94 96
97 98 99 99 98 98 94 96 91 96 91 92 92 92 89 90 90 93 93 92 89 97 97 97 88 76 70 67 82 92 88 89 94 94 98 92 91 91